Zurück zum Katalog

STARLINK-30868

AktivKommunikationVLEO
NORAD 58390·PAYLOAD·🇺🇸 United States

Gestartet Nov 20, 2023 von Vandenberg Space Force Base

Loading…

Nächste Überflüge (nächste 24 Stunden)

TLE

AktuellSource: CelesTrak SupGP

Epoche: Sep 14, 2026, 14:28 UTC

1 58390C 23178S   26257.60326389  .00018657  00000+0  55126-3 0  2570
2 58390  53.1577 199.5182 0001323  88.6539 225.4730 15.34380211    10

Verfolge STARLINK-30868 in Echtzeit mit AllMySat

Download on the App Store